[[{"header":{"parameterUnit":"m.s-1","parameterCategory":1,"la1":30.2991,"la2":30.254,"lo1":-89.0895,"lo2":-89.0444,"dy":0.0017,"dx":0.0017,"nx":28,"ny":28,"refTime":"2023-10-25T21:00:00:Z","depth":0,"parameterNumber":2,"parameterNumberName":"U-component_of_WINDS"},"data":[0,0,0,0,0,0,0,0,0,0,0,0,0,0,0,0,0,0,0,0,0,0,0,0,0,0,0,0,0,0,0,0,0,0,0,0,0,0,0,0,0,0,0,0,0,0,0,0,0,0,0,0,0,0,0,0,0,0,-3.534,-3.5341,0,-3.5419,-3.542,-3.5421,-3.5292,-3.5288,-3.5283,-3.5279,-3.5366,-3.5372,-3.5378,0,0,0,0,0,0,0,0,0,0,0,0,0,-3.5086,-3.5091,-3.534,-3.5341,-3.5342,-3.5419,-3.542,-3.5421,-3.5293,-3.5288,-3.5282,-3.5277,-3.5364,-3.5371,-3.5379,0,0,0,0,0,0,0,0,0,0,0,0,0,-3.5184,-3.5093,-3.534,-3.5287,-3.5283,-3.5419,-3.542,-3.5421,-3.5294,-3.5287,-3.5281,-3.5275,-3.5361,-3.537,-3.538,-3.5572,0,0,-3.5409,-3.5414,0,0,0,0,0,0,0,0,-3.5179,-3.5194,-3.5294,-3.5291,-3.5287,-3.5339,-3.5362,-3.5472,-3.5296,-3.529,-3.5279,-3.5271,-3.5363,-3.5372,-3.5401,-3.5576,-3.558,-3.541,-3.5416,-3.542,-3.5423,0,0,0,0,0,0,0,-3.5172,-3.5189,-3.5371,-3.5296,-3.5292,-3.5262,-3.5269,-3.5382,-3.5363,-3.529,-3.5281,-3.5292,-3.5359,-3.5392,-3.5402,-3.5581,-3.541,-3.5418,-3.5424,-3.5428,-3.5922,-3.5929,0,0,0,0,0,0,-3.5171,-3.5185,-3.5369,-3.5374,-3.5215,-3.5272,-3.5279,-3.5329,-3.5361,-3.536,-3.5297,-3.5285,-3.5379,-3.5391,-3.5405,-3.5634,-3.542,-3.5429,-3.5435,-3.5915,-3.5924,-3.5932,0,0,0,0,0,0,-3.5166,-3.5188,-3.5366,-3.5277,-3.5297,-3.5283,-3.534,-3.5334,-3.5367,-3.5366,-3.5363,-3.5334,-3.5374,-3.5391,-3.5532,-3.5636,-3.5433,-3.5442,-3.5906,-3.5918,-3.5928,-3.6094,0,0,0,0,0,0,-3.5159,-3.5187,-3.5258,-3.5279,-3.5302,-3.549,-3.5347,-3.534,-3.5383,-3.5368,-3.54,-3.5399,-3.537,-3.5518,-3.5542,-3.5645,-3.545,-3.5897,-3.5911,-3.5924,-3.608,-3.611,-3.6135,0,0,0,0,0,-3.515,-3.5302,-3.5263,-3.5286,-3.539,-3.5496,-3.5509,-3.5472,-3.5392,-3.5464,-3.5465,-3.5398,-3.562,-3.5534,-3.5559,-3.5667,-3.589,-3.5907,-3.5923,-3.6067,-3.6104,-3.6135,0,0,0,0,0,0,-3.5295,-3.5304,-3.526,-3.5423,-3.546,-3.5474,-3.5564,-3.5511,-3.5573,-3.5557,-3.5509,-3.5517,-3.5669,-3.5682,-3.5585,-3.5857,-3.5742,-3.5765,-3.5843,-3.5878,-3.5905,-3.59,-3.5458,0,0,0,0,0,-3.5346,-3.5429,-3.5433,-3.5576,-3.5597,-3.5578,-3.5623,-3.559,-3.5627,-3.5643,-3.5653,-3.5693,-3.5772,-3.5826,-3.5898,-3.608,-3.6088,-3.6168,-3.6196,-3.6219,-3.6239,-3.634,-3.6377,-3.5986,-3.5986,-3.5986,0,0,-3.5452,-3.5467,-3.5522,-3.5606,-3.563,-3.572,-3.5592,-3.5691,-3.5758,-3.5658,-3.5792,-3.5802,-3.5844,-3.6007,-3.608,-3.6022,-3.6349,-3.624,-3.6258,-3.6266,-3.6361,-3.6398,-3.6431,-3.5997,-3.5995,-3.5993,0,0,-3.5691,-3.5709,-3.5832,-3.586,-3.5899,-3.5886,-3.5916,-3.5939,-3.5941,-3.6074,-3.6002,-3.6082,-3.6219,-3.6252,-3.6288,-3.6544,-3.6486,-3.6569,-3.6715,-3.6815,-3.6845,-3.6873,-3.6967,-3.7001,-3.6589,-3.6589,-3.6589,0,-3.5818,-3.5948,-3.5903,-3.6008,-3.6049,-3.5961,-3.6088,-3.6117,-3.6179,-3.621,-3.6145,-3.6316,-3.6338,-3.651,-3.6573,-3.6603,-3.6638,-3.6565,-3.6844,-3.6871,-3.6896,-3.6985,-3.7021,-3.6599,-3.6598,-3.6597,-3.6596,0,-3.6104,-3.6196,-3.6291,-3.6352,-3.6403,-3.6519,-3.6494,-3.6552,-3.6516,-3.6511,-3.665,-3.6673,-3.6751,-3.6789,-3.6755,-3.6958,-3.6921,-3.6851,-3.6735,-3.6944,-3.7027,-3.7061,-3.6614,-3.661,-3.6607,-3.6604,0,0,-3.6435,-3.6471,-3.6507,-3.6535,-3.6573,-3.6645,-3.6758,-3.6832,-3.6884,-3.6931,-3.7027,-3.7145,-3.7081,-3.7122,-3.7091,-3.7178,-3.7384,-3.7097,-3.7098,-3.7152,-3.7613,-3.7667,-3.7707,-3.7345,-3.7351,-3.7356,-3.761,0,-3.6675,-3.6868,-3.6832,-3.7022,-3.7108,-3.7028,-3.7128,-3.7164,-3.7163,-3.7238,-3.7237,-3.7323,-3.7231,-3.7255,-3.7337,-3.7341,-3.7476,-3.7322,-3.7437,-3.7442,-3.7431,-3.775,-3.7806,-3.8044,-3.7642,-3.7647,-3.7651,0,-3.698,-3.7037,-3.7235,-3.7263,-3.7298,-3.7387,-3.7454,-3.7526,-3.7567,-3.756,-3.7607,-3.7561,-3.7678,-3.756,-3.7722,-3.7618,-3.7663,-3.7673,-3.7681,-3.7692,-3.756,-3.7772,-3.8119,-3.8156,-3.7702,-3.7698,-3.7694,0,-3.7205,-3.7332,-3.7467,-3.7493,-3.7528,-3.7594,-3.7612,-3.7645,-3.7693,-3.7753,-3.7785,-3.7858,-3.7899,-3.7958,-3.7935,-3.785,-3.8103,-3.7982,-3.8104,-3.8105,-3.8161,-3.8158,-3.8523,-3.8188,-3.8187,-3.8187,-3.8186,0,-3.7477,-3.7602,-3.7569,-3.7653,-3.7792,-3.7751,-3.7891,-3.79,-3.7931,-3.8018,-3.7953,-3.8036,-3.8,-3.8081,-3.8064,-3.8203,-3.8222,-3.8222,-3.8216,-3.8229,-3.8229,-3.8259,-3.8243,-3.8196,-3.8194,-3.8192,-3.819,0,-3.7751,-3.7734,-3.7877,-3.7899,-3.7907,-3.801,-3.8029,-3.8109,-3.8104,-3.8215,-3.8238,-3.8232,-3.8325,-3.8307,-3.841,-3.8399,-3.8574,-3.8547,-3.856,-3.8554,-3.8678,-3.8668,-3.9076,-3.9129,-3.8758,-3.8761,-3.8764,0,-3.7927,-3.8021,-3.8054,-3.8106,-3.8129,-3.8214,-3.8264,-3.8229,-3.8283,-3.8339,-3.8414,-3.85,-3.8568,-3.8722,-3.8728,-3.8807,-3.8783,-3.8921,-3.8795,-3.8806,-3.8788,-3.8784,-3.8795,-3.8946,-3.8951,-3.8954,-3.8957,0,-3.8241,-3.8229,-3.8301,-3.8372,-3.8433,-3.8487,-3.8535,-3.8583,-3.8553,-3.8618,-3.8712,-3.8765,-3.887,-3.8959,-3.9034,-3.9055,-3.9004,-3.8997,-3.9029,-3.9044,-3.9049,-3.9051,-3.863,-3.8988,-3.8984,-3.8982,-3.8981,-3.8979,-3.8473,-3.8554,-3.8591,-3.8675,-3.8708,-3.8755,-3.8833,-3.8838,-3.8915,-3.8997,-3.8973,-3.9081,-3.9123,-3.9218,-3.9248,-3.9334,-3.9283,-3.933,-3.9342,-3.9355,-3.9371,-3.9034,-3.9348,-3.9347,-3.9346,-3.9345,-3.9344,0,-3.8785,-3.8805,-3.8883,-3.8953,-3.9021,-3.8964,-3.9016,-3.9077,-3.9172,-3.9215,-3.9283,-3.9394,-3.9481,-3.9495,-3.9578,-3.9645,-3.9623,-3.9668,-3.9663,-3.967,-3.9411,-3.9375,-3.9684,-3.9684,-3.9684,-3.9684,-3.9684,-3.9684,-3.8956,-3.9092,-3.9085,-3.9238,-3.9257,-3.9362,-3.9397,-3.9442,-3.9476,-3.9602,-3.9674,-3.9681,-3.9714,-3.98,-3.9879,-3.9881,-3.9915,-3.997,-3.9964,-3.9722,-3.9688,-3.9655,-3.9622,-3.9978,-3.9978,-4.0216,-4.0218,-4.022]},{"header":{"parameterUnit":"m.s-1","parameterCategory":1,"la1":30.2991,"la2":30.254,"lo1":-89.0895,"lo2":-89.0444,"dy":0.0017,"dx":0.0017,"nx":28,"ny":28,"refTime":"2023-10-25T21:00:00:Z","depth":0,"parameterNumber":3,"parameterNumberName":"V-component_of_WINDS"},"data":[0,0,0,0,0,0,0,0,0,0,0,0,0,0,0,0,0,0,0,0,0,0,0,0,0,0,0,0,0,0,0,0,0,0,0,0,0,0,0,0,0,0,0,0,0,0,0,0,0,0,0,0,0,0,0,0,0,0,-0.9618,-0.9618,0,-0.9594,-0.9594,-0.9593,-0.9613,-0.9614,-0.9614,-0.9615,-0.9585,-0.9584,-0.9582,0,0,0,0,0,0,0,0,0,0,0,0,0,-0.9675,-0.9674,-0.9618,-0.9618,-0.9617,-0.9594,-0.9594,-0.9593,-0.9613,-0.9614,-0.9615,-0.9616,-0.9586,-0.9584,-0.9582,0,0,0,0,0,0,0,0,0,0,0,0,0,-0.965,-0.9673,-0.9618,-0.9624,-0.9625,-0.9594,-0.9594,-0.9593,-0.9612,-0.9614,-0.9615,-0.9616,-0.9587,-0.9584,-0.9582,-0.9542,0,0,-0.9575,-0.9574,0,0,0,0,0,0,0,0,-0.9652,-0.9648,-0.9624,-0.9624,-0.9624,-0.9608,-0.9603,-0.9576,-0.9612,-0.9617,-0.9615,-0.9617,-0.9591,-0.9589,-0.9581,-0.9541,-0.954,-0.9575,-0.9573,-0.9572,-0.9571,0,0,0,0,0,0,0,-0.9653,-0.9649,-0.9608,-0.9623,-0.9623,-0.9626,-0.9624,-0.9598,-0.9597,-0.9616,-0.9618,-0.9615,-0.9592,-0.9584,-0.9581,-0.9539,-0.9575,-0.9572,-0.9571,-0.957,-0.9463,-0.9462,0,0,0,0,0,0,-0.9655,-0.9651,-0.9609,-0.9608,-0.9641,-0.9624,-0.9622,-0.9612,-0.9598,-0.9597,-0.9614,-0.9616,-0.9587,-0.9584,-0.958,-0.9531,-0.9572,-0.957,-0.9569,-0.9465,-0.9463,-0.9461,0,0,0,0,0,0,-0.9656,-0.9651,-0.961,-0.9629,-0.9624,-0.9622,-0.961,-0.961,-0.9602,-0.9596,-0.9595,-0.9606,-0.9588,-0.9583,-0.9551,-0.953,-0.9569,-0.9567,-0.9466,-0.9464,-0.9462,-0.9434,0,0,0,0,0,0,-0.9658,-0.9652,-0.9638,-0.9629,-0.9623,-0.9583,-0.9609,-0.9609,-0.9599,-0.9601,-0.9588,-0.9587,-0.9588,-0.9555,-0.9549,-0.9528,-0.9565,-0.9468,-0.9465,-0.9463,-0.9436,-0.9431,-0.9426,0,0,0,0,0,-0.966,-0.963,-0.9637,-0.9632,-0.9606,-0.9582,-0.9579,-0.9582,-0.9597,-0.9582,-0.9578,-0.9588,-0.9534,-0.9552,-0.9545,-0.9523,-0.9469,-0.9466,-0.9463,-0.9439,-0.9432,-0.9426,0,0,0,0,0,0,-0.9634,-0.9629,-0.9636,-0.9603,-0.9593,-0.9586,-0.9567,-0.9575,-0.9559,-0.9562,-0.9566,-0.9563,-0.9529,-0.9523,-0.9543,-0.9483,-0.9504,-0.9499,-0.9487,-0.9481,-0.9476,-0.9477,-0.9563,0,0,0,0,0,-0.9625,-0.9608,-0.9603,-0.9574,-0.9569,-0.9569,-0.9559,-0.9562,-0.9551,-0.9547,-0.954,-0.9528,-0.9508,-0.9494,-0.9476,-0.9437,-0.9432,-0.9418,-0.9413,-0.9408,-0.9403,-0.938,-0.9372,-0.9451,-0.9451,-0.9451,0,0,-0.9605,-0.96,-0.9588,-0.9569,-0.9562,-0.9541,-0.9565,-0.9543,-0.9528,-0.9543,-0.9512,-0.9507,-0.9493,-0.9457,-0.9441,-0.9451,-0.9381,-0.9404,-0.9401,-0.9398,-0.9376,-0.9368,-0.9362,-0.9449,-0.9449,-0.9449,0,0,-0.9558,-0.9554,-0.9528,-0.9521,-0.951,-0.951,-0.9504,-0.9495,-0.9493,-0.9463,-0.9473,-0.9454,-0.9421,-0.941,-0.94,-0.9349,-0.9357,-0.9343,-0.9315,-0.9292,-0.9286,-0.928,-0.9259,-0.9252,-0.9339,-0.9339,-0.9339,0,-0.9533,-0.9506,-0.9513,-0.9491,-0.9481,-0.9496,-0.9469,-0.9461,-0.9444,-0.9435,-0.9448,-0.9406,-0.9398,-0.9358,-0.9346,-0.9338,-0.9329,-0.9343,-0.9286,-0.9281,-0.9276,-0.9256,-0.9248,-0.9337,-0.9337,-0.9338,-0.9338,0,-0.9475,-0.9456,-0.9436,-0.9421,-0.9409,-0.9384,-0.9386,-0.9373,-0.9379,-0.9377,-0.9345,-0.9336,-0.9315,-0.9307,-0.9311,-0.9267,-0.9274,-0.9286,-0.9307,-0.9266,-0.9248,-0.924,-0.9335,-0.9335,-0.9336,-0.9336,0,0,-0.9409,-0.94,-0.9392,-0.9385,-0.9374,-0.9358,-0.9334,-0.9315,-0.9302,-0.9291,-0.9268,-0.924,-0.9251,-0.924,-0.9243,-0.9224,-0.9181,-0.9238,-0.9238,-0.9225,-0.9129,-0.9117,-0.9109,-0.9187,-0.9186,-0.9185,-0.9129,0,-0.936,-0.9318,-0.9325,-0.9283,-0.9264,-0.9279,-0.9257,-0.9247,-0.9245,-0.9227,-0.9224,-0.9203,-0.9221,-0.9214,-0.9195,-0.919,-0.9161,-0.9195,-0.9163,-0.9162,-0.9163,-0.9099,-0.9087,-0.9035,-0.9122,-0.9121,-0.912,0,-0.9296,-0.9283,-0.924,-0.9232,-0.9224,-0.9205,-0.9188,-0.9171,-0.916,-0.916,-0.9147,-0.9154,-0.9127,-0.9151,-0.9112,-0.9135,-0.9122,-0.9118,-0.9116,-0.9111,-0.9136,-0.909,-0.9019,-0.901,-0.9109,-0.911,-0.9111,0,-0.9248,-0.9221,-0.9191,-0.9185,-0.9176,-0.9161,-0.9156,-0.9146,-0.9134,-0.9119,-0.9111,-0.9093,-0.9081,-0.9066,-0.9067,-0.9084,-0.9026,-0.9051,-0.9023,-0.9022,-0.9007,-0.9008,-0.8931,-0.9004,-0.9005,-0.9005,-0.9005,0,-0.9191,-0.9163,-0.917,-0.9151,-0.9121,-0.9128,-0.9097,-0.9093,-0.9085,-0.9064,-0.9076,-0.9056,-0.906,-0.9039,-0.904,-0.9006,-0.9002,-0.8999,-0.8998,-0.8996,-0.8996,-0.8985,-0.8988,-0.9003,-0.9003,-0.9004,-0.9004,0,-0.9131,-0.9135,-0.9103,-0.9098,-0.9096,-0.9073,-0.9067,-0.9048,-0.9048,-0.9022,-0.9016,-0.9015,-0.8991,-0.8991,-0.8964,-0.8965,-0.8922,-0.8928,-0.8926,-0.8926,-0.8897,-0.8899,-0.8809,-0.8796,-0.8881,-0.888,-0.888,0,-0.9093,-0.9072,-0.9065,-0.9053,-0.9047,-0.9028,-0.9016,-0.9023,-0.901,-0.8995,-0.8978,-0.8956,-0.8939,-0.89,-0.8895,-0.8874,-0.8877,-0.8847,-0.8873,-0.8871,-0.8873,-0.8873,-0.8869,-0.8841,-0.884,-0.8839,-0.8838,0,-0.9023,-0.9026,-0.901,-0.8994,-0.898,-0.8967,-0.8956,-0.8945,-0.895,-0.8934,-0.8912,-0.8898,-0.8871,-0.8848,-0.8828,-0.8821,-0.8828,-0.8831,-0.8822,-0.8818,-0.8817,-0.8814,-0.8909,-0.8832,-0.8832,-0.8833,-0.8833,-0.8833,-0.8971,-0.8952,-0.8944,-0.8925,-0.8918,-0.8907,-0.8889,-0.8887,-0.8869,-0.8848,-0.8853,-0.8827,-0.8815,-0.8789,-0.878,-0.8757,-0.8768,-0.8757,-0.8753,-0.8749,-0.8745,-0.8823,-0.8754,-0.8754,-0.8754,-0.8755,-0.8755,0,-0.8899,-0.8895,-0.8878,-0.8862,-0.8846,-0.8859,-0.8847,-0.8832,-0.881,-0.8799,-0.8782,-0.8755,-0.8733,-0.8727,-0.8705,-0.8688,-0.8691,-0.8681,-0.8681,-0.8678,-0.8739,-0.8746,-0.8679,-0.8679,-0.8679,-0.8679,-0.8679,-0.8679,-0.8859,-0.8829,-0.8831,-0.8796,-0.8792,-0.8767,-0.8759,-0.8748,-0.8739,-0.8709,-0.8691,-0.8688,-0.8679,-0.8656,-0.8635,-0.8634,-0.8624,-0.8612,-0.8612,-0.8667,-0.8675,-0.8682,-0.8689,-0.8611,-0.8611,-0.8553,-0.8553,-0.8552]}]]